Change the Weather History Date:

Sunday, September 15, 2013

  Actual Average Record
Temperature  
Mean Temperature 73 °F -  
Max Temperature 86 °F 69 °F 93 °F (1998)
Min Temperature 60 °F 45 °F 37 °F (2006)
Cooling Degree Days 8    
Growing Degree Days 23 (Base 50)    
Moisture  
Dew Point 52 °F    
Average Humidity 53    
Maximum Humidity 94    
Minimum Humidity 29    
Precipitation  
Precipitation 0.00 in - - ()
Sea Level Pressure  
Sea Level Pressure 29.76 in    
Wind  
Wind Speed 13 mph (NNW)    
Max Wind Speed 44 mph    
Max Gust Speed 54 mph    
Visibility 6 miles    
Events Rain , Thunderstorm    
Averages and records for this station are not official NWS values.
T = Trace of Precipitation, MM = Missing Value Source: NWS Daily Summary

Daily Weather History Graph

Daily Weather History Graph

Search for Another Location

Airport or City:

Trip Planner

Search our weather history database for the weather conditions in past years. The results will help you decide how hot, cold, wet, or windy it might be!

Date:

Astronomy

Sep. 15, 2013 Rise Set
Actual Time 6:28 AM PDT 7:02 PM PDT
Civil Twilight 5:57 AM PDT 7:32 PM PDT
Nautical Twilight 5:20 AM PDT 8:09 PM PDT
Astronomical Twilight 4:42 AM PDT 8:47 PM PDT
Moon 4:44 PM PDT (9/15) 1:57 AM PDT (9/15)
Length of Visible Light 13h 35m
Length of Day
12h 33m
Waxing Gibbous, 83% of the Moon is Illuminated
Sep 15
Waxing Gibbous
Sep 19
Full
Sep 26
Last Quarter
Oct 4
New
Oct 11
First Quarter

Hourly Weather History & Observations

Time (PDT) Temp. Dew Point Humidity Pressure Visibility Wind Dir Wind Speed Gust Speed Precip Events Conditions
12:56 AM 68.0 °F 44.6 °F 43% 29.88 in 10.0 mi NE 9.2 mph - N/A   Clear
1:56 AM 69.8 °F 44.6 °F 40% 29.87 in 10.0 mi NE 8.1 mph - N/A   Clear
2:56 AM 66.2 °F 46.4 °F 49% 29.88 in 10.0 mi NE 9.2 mph - N/A   Clear
3:56 AM 68.0 °F 44.6 °F 43% 29.87 in 10.0 mi NNE 8.1 mph - N/A   Clear
4:56 AM 68.0 °F 46.4 °F 46% 29.87 in 10.0 mi NNE 9.2 mph - N/A   Clear
5:56 AM 62.6 °F 46.4 °F 55% 29.86 in 10.0 mi North 6.9 mph - N/A   Clear
6:56 AM 64.4 °F 46.4 °F 52% 29.86 in 10.0 mi NE 6.9 mph - N/A   Clear
7:56 AM 68.0 °F 48.2 °F 49% 29.86 in 10.0 mi NE 5.8 mph - N/A   Clear
8:56 AM 73.4 °F 48.2 °F 41% 29.86 in 10.0 mi NE 9.2 mph - N/A   Clear
9:56 AM 77.0 °F 48.2 °F 36% 29.85 in 10.0 mi NE 11.5 mph - N/A   Clear
10:56 AM 78.8 °F 50.0 °F 36% 29.83 in 10.0 mi NE 10.4 mph - N/A   Partly Cloudy
11:56 AM 80.6 °F 48.2 °F 32% 29.82 in 10.0 mi ENE 12.7 mph - N/A   Mostly Cloudy
12:56 PM 82.4 °F 48.2 °F 30% 29.81 in 10.0 mi ENE 10.4 mph - N/A   Mostly Cloudy
1:56 PM 84.2 °F 50.0 °F 30% 29.80 in 10.0 mi NNE 5.8 mph - N/A   Mostly Cloudy
2:56 PM 84.2 °F 50.0 °F 30% 29.77 in 10.0 mi NNE 11.5 mph - N/A   Clear
3:56 PM 86.0 °F 50.0 °F 29% 29.74 in 10.0 mi North 11.5 mph - N/A   Scattered Clouds
4:56 PM 86.0 °F 50.0 °F 29% 29.72 in 10.0 mi North 13.8 mph - N/A   Scattered Clouds
5:56 PM 84.2 °F 50.0 °F 30% 29.70 in 10.0 mi NNE 9.2 mph - N/A   Mostly Cloudy
6:56 PM 80.6 °F 50.0 °F 34% 29.68 in 10.0 mi North 8.1 mph - N/A   Clear
7:32 PM 77.0 °F 50.0 °F 39% 29.69 in 2.5 mi North 5.8 mph - N/A   Haze
7:33 PM 77.0 °F 50.0 °F 39% 29.69 in 2.5 mi NNW 5.8 mph - N/A   Haze
7:45 PM 75.2 °F 50.0 °F 41% 29.69 in 2.5 mi NNW 5.8 mph - N/A   Haze
7:47 PM 75.2 °F 50.0 °F 41% 29.69 in 2.0 mi NNW 6.9 mph - N/A   Haze
7:50 PM 75.2 °F 50.0 °F 41% 29.69 in 2.0 mi North 6.9 mph - N/A   Haze
7:55 PM 75.2 °F 50.0 °F 41% 29.69 in 2.0 mi North 9.2 mph - N/A   Haze
7:56 PM 73.4 °F 50.0 °F 44% 29.69 in 2.0 mi North 10.4 mph - N/A   Haze
7:58 PM 73.4 °F 50.0 °F 44% 29.69 in 1.8 mi North 10.4 mph - N/A   Haze
8:00 PM 73.4 °F 50.0 °F 44% 29.69 in 1.5 mi North 10.4 mph - N/A   Haze
8:03 PM 73.4 °F 50.0 °F 44% 29.69 in 1.2 mi North 10.4 mph - N/A   Haze
8:19 PM 75.2 °F 51.8 °F 44% 29.69 in 1.2 mi North 8.1 mph - N/A   Haze
8:24 PM 75.2 °F 50.0 °F 41% 29.69 in 1.2 mi North 8.1 mph - N/A   Haze
8:29 PM 75.2 °F 51.8 °F 44% 29.68 in 1.5 mi North 8.1 mph - N/A   Haze
8:35 PM 75.2 °F 51.8 °F 44% 29.68 in 1.5 mi NNE 8.1 mph - N/A   Haze
8:42 PM 75.2 °F 50.0 °F 41% 29.68 in 1.8 mi North 8.1 mph - N/A   Haze
8:56 PM 77.0 °F 50.0 °F 39% 29.69 in 2.0 mi ENE 5.8 mph - N/A   Haze
8:57 PM 75.2 °F 51.8 °F 44% 29.70 in 2.0 mi Variable 6.9 mph - N/A   Haze
8:59 PM 75.2 °F 51.8 °F 44% 29.76 in 2.0 mi South 31.1 mph 38.0 mph N/A   Haze
9:01 PM 73.4 °F 53.6 °F 50% 29.74 in 1.2 mi SSW 41.4 mph 51.8 mph N/A   Haze
9:03 PM 73.4 °F 53.6 °F 50% 29.76 in 0.8 mi SSW 43.7 mph 52.9 mph N/A   Haze
9:05 PM 71.6 °F 53.6 °F 53% 29.76 in 0.5 mi SSW 40.3 mph 54.1 mph N/A   Haze
9:09 PM 69.8 °F 53.6 °F 56% 29.75 in 0.2 mi SW 42.6 mph 54.1 mph N/A   Haze
9:12 PM 69.8 °F 53.6 °F 56% 29.76 in 0.2 mi SW 43.7 mph 54.1 mph N/A   Haze
9:14 PM 68.0 °F 53.6 °F 60% 29.77 in 0.2 mi SW 38.0 mph 54.1 mph N/A   Haze
9:15 PM 68.0 °F 53.6 °F 60% 29.77 in 0.2 mi SW 39.1 mph 54.1 mph N/A   Haze
9:17 PM 68.0 °F 55.4 °F 64% 29.77 in 0.5 mi SW 36.8 mph 54.1 mph N/A   Haze
9:18 PM 68.0 °F 55.4 °F 64% 29.77 in 0.5 mi SW 36.8 mph 54.1 mph N/A   Haze
9:22 PM 64.4 °F 57.2 °F 77% 29.77 in 0.8 mi SW 35.7 mph 49.5 mph N/A   Haze
9:29 PM 62.6 °F 57.2 °F 82% 29.77 in 4.0 mi SW 31.1 mph 48.3 mph N/A   Haze
9:31 PM 62.6 °F 57.2 °F 82% 29.77 in 6.0 mi SW 29.9 mph 48.3 mph N/A   Haze
9:34 PM 62.6 °F 57.2 °F 82% 29.77 in 8.0 mi SW 29.9 mph 43.7 mph N/A   Scattered Clouds
9:56 PM 60.8 °F 55.4 °F 82% 29.75 in 10.0 mi West 27.6 mph 36.8 mph N/A   Partly Cloudy
10:17 PM 60.8 °F 57.2 °F 88% 29.77 in 10.0 mi West 25.3 mph 28.8 mph N/A Rain , Thunderstorm Thunderstorms and Rain
10:18 PM 60.8 °F 57.2 °F 88% 29.77 in 10.0 mi West 24.2 mph 28.8 mph N/A Rain , Thunderstorm Light Thunderstorms and Rain
10:44 PM 60.8 °F 57.2 °F 88% 29.75 in 10.0 mi West 8.1 mph - N/A Thunderstorm Thunderstorm
10:48 PM 60.8 °F 57.2 °F 88% 29.76 in 10.0 mi WNW 10.4 mph - N/A   Overcast
10:56 PM 60.8 °F 59.0 °F 94% 29.80 in 10.0 mi SW 8.1 mph - N/A   Overcast
10:59 PM 60.8 °F 59.0 °F 94% 29.80 in 10.0 mi SW 13.8 mph - N/A   Light Drizzle
11:08 PM 60.8 °F 57.2 °F 88% 29.79 in 10.0 mi South 6.9 mph - N/A   Overcast
11:56 PM 60.8 °F 57.2 °F 88% 29.77 in 10.0 mi ENE 4.6 mph - N/A   Scattered Clouds